Regional Weather Roundup
Issued by NWS

Home | Current Version | Previous Version | Text Only | Print | Product List | Glossary On
Versions: 1 2 3 4 5 6 7 8 9 10 11 12 13 14 15 16 17 18 19 20 21 22 23 24 25 26 27 28 29 30 31 32 33 34 35 36 37 38 39 40 41 42 43 44 45 46 47 48 49 50
000
ASUS45 KABQ 060401
RWRNM
NEW MEXICO REGIONAL WEATHER ROUNDUP
NATIONAL WEATHER SERVICE ALBUQUERQUE NM
1000 PM MDT THU MAY 05 2016

NOTE: "FAIR" MEANS FEW OR NO CLOUDS BELOW 12,000 FEET AGL WITH NO
       SIGNIFICANT WEATHER OR OBSTRUCTIONS TO VISION.

      THIS PRODUCT IS RELEASED AS TWO VERSIONS.  ONE VERSION NEAR
      THE TOP OF THE HOUR CONTAINING PRELIMINARY DATA FROM ALBUQUERQUE
      AND OTHER STATIONS.  A FINAL VERSION WITH ADDITIONAL DATA IS
      ISSUED ABOUT 10 MINUTES AFTER THE HOUR.

NMZ501-503-504-510>518-060500-
NORTHWEST PLATEAU/NORTHCENTRAL MOUNTAINS

CITY           SKY/WX    TMP DP  RH WIND       PRES   REMARKS
FARMINGTON     MOCLDY    73  29  19 S18G31    29.96R
SANTA FE       FAIR      63  23  21 SE14      30.11R
TAOS           MOCLDY    59  28  31 SE10      30.16R

$$
NMZ402-403-502-505>509-060500-
WESTCENTRAL MOUNTAINS/SOUTHWEST MOUNTAINS

CITY           SKY/WX    TMP DP  RH WIND       PRES   REMARKS
GALLUP         CLOUDY    64  36  35 SE5       30.00S
GRANTS         FAIR      64  30  28 S9        30.06S
SILVER CITY      N/A     73  23  15 S9        30.02S

$$
NMZ407-409-411-412-060500-
SOUTHERN DESERTS

CITY           SKY/WX    TMP DP  RH WIND       PRES   REMARKS
LORDSBURG      FAIR      75   9   7 SW14G20   29.90R
DEMING         FAIR      80  34  19 VRB5      29.92R
HOLLOMAN AFB   FAIR      78  24  13 SE15      29.94R
ALAMOGORDO     FAIR      79  23  12 SE18G25   29.95S
T OR C         FAIR      77  29  17 S8        29.96R

$$
NMZ519>523-060500-
CENTRAL VALLEYS/CENTRAL HIGHLANDS

CITY           SKY/WX    TMP DP  RH WIND       PRES   REMARKS
ALBUQUERQUE    FAIR      66  24  20 SE7       30.02R
DOUBLE EAGLE   PTCLDY    64  28  25 SE8       30.05R
CLINES CORNERS FAIR      58  20  22 SE17G24   30.18R
BELEN          FAIR      69  27  20 SE7       30.01R
SOCORRO        NOT AVBL

$$
NMZ524>526-539-540-060500-
SOUTHCENTRAL MOUNTAINS

CITY           SKY/WX    TMP DP  RH WIND       PRES   REMARKS
RUIDOSO        NOT AVBL

$$
NMZ527>531-060500-
NORTHEAST HIGHLANDS/NORTHEAST PLAINS

CITY           SKY/WX    TMP DP  RH WIND       PRES   REMARKS
LAS VEGAS      FAIR      54  24  31 S12       30.18R
RATON          FAIR      55  28  35 W7        30.14R
CLAYTON        FAIR      61  29  29 SW10      30.08R

$$
NMZ532>537-060500-
EASTCENTRAL PLAINS

CITY           SKY/WX    TMP DP  RH WIND       PRES   REMARKS
TUCUMCARI      FAIR      61  29  29 S6        30.04R
CANNON AFB     NOT AVBL
CLOVIS AIRPORT FAIR      59  28  31 S9        30.09S

$$
NMZ028-029-538-060500-
SOUTHEAST PLAINS

CITY           SKY/WX    TMP DP  RH WIND       PRES   REMARKS
ROSWELL        FAIR      66  25  21 SE7       30.02R
ARTESIA        FAIR      68  25  19 SE9       30.03R
CARLSBAD       FAIR      69  24  18 S8        30.01R
HOBBS          FAIR      68  25  19 SE12      30.08S


$$



USA.gov is the U.S. government's official web portal to all federal, state and local government web resources and services.